Voltar ao catálogo

CSTP-1.2

AtivoCiênciaSSO
NORAD 57186·PAYLOAD·🇷🇺 Russia
Este nome de satélite ainda não foi confirmado por fontes oficiais.

Lançado Jun 27, 2023 de Vostochny Cosmodrome

Loading…

Próximas Passagens (próximas 24 horas)

TLE

AtualizadoSource: Space-Track

Época: Sep 14, 2026, 14:31 UTC

1 57186U 23091W   26257.60537018  .00007208  00000-0  24845-3 0  9997
2 57186  97.5060 324.7859 0018813 133.8990 226.3807 15.30151827178128

Acompanhe CSTP-1.2 em tempo real com AllMySat

Download on the App Store